Location: Gand�
(15.0971°N, 12.6564°W)
Time: 02:46:07
(UTC+00:00)

GPS 2-18 Rocket1 - Pass Details

Date: 07 August 2020
Orbit: 459 x 515 km, 20.9° (Epoch: 23 September)

Event Time Altitude Azimuth Distance (km) Brightness Sun altitude
Exits shadow 05:11:52 25° 324° (NW) 956 4.4 -19.6°
Maximum altitude 05:13:04 31° 0° (N) 812 4.4 -19.3°
Drops below altitude 10° 05:16:21 10° 65° (ENE) 1,583 6.9 -18.6°
Sets 05:18:41 0° 76° (ENE) 2,454 8.3 -18.1°
